[[{"header":{"parameterUnit":"m.s-1","parameterCategory":1,"la1":30.2991,"la2":30.254,"lo1":-89.0895,"lo2":-89.0444,"dy":0.0017,"dx":0.0017,"nx":28,"ny":28,"refTime":"2025-06-03T03:00:00:Z","depth":0,"parameterNumber":2,"parameterNumberName":"U-component_of_WINDS"},"data":[0,0,0,0,0,0,0,0,0,0,0,0,0,0,0,0,0,0,0,0,0,0,0,0,0,0,0,0,0,0,0,0,0,0,0,0,0,0,0,0,0,0,0,0,0,0,0,0,0,0,0,0,0,0,0,0,0,0,-3.893,-3.8931,0,-3.901,-3.9011,-3.9012,-3.8913,-3.8909,-3.8905,-3.8902,-3.8984,-3.8989,-3.8995,0,0,0,0,0,0,0,0,0,0,0,0,0,-3.869,-3.8695,-3.893,-3.8931,-3.8932,-3.901,-3.9011,-3.9012,-3.8913,-3.8909,-3.8905,-3.89,-3.8982,-3.8988,-3.8995,0,0,0,0,0,0,0,0,0,0,0,0,0,-3.8785,-3.8697,-3.893,-3.8892,-3.889,-3.901,-3.9011,-3.9013,-3.8914,-3.8909,-3.8903,-3.8898,-3.898,-3.8988,-3.8996,-3.9157,0,0,-3.9022,-3.9025,0,0,0,0,0,0,0,0,-3.8779,-3.8794,-3.8897,-3.8895,-3.8892,-3.8946,-3.8956,-3.9061,-3.8916,-3.8905,-3.8902,-3.8896,-3.8976,-3.8984,-3.9011,-3.9161,-3.9165,-3.9022,-3.9027,-3.9031,-3.9033,0,0,0,0,0,0,0,-3.8773,-3.879,-3.8962,-3.8898,-3.8896,-3.8871,-3.8878,-3.8976,-3.897,-3.8905,-3.8898,-3.8909,-3.8973,-3.9003,-3.9012,-3.9166,-3.9022,-3.903,-3.9035,-3.9038,-3.9451,-3.9456,0,0,0,0,0,0,-3.8771,-3.8785,-3.8959,-3.8964,-3.8821,-3.888,-3.8888,-3.8934,-3.8969,-3.8969,-3.8914,-3.8904,-3.8992,-3.9002,-3.9015,-3.9204,-3.9031,-3.9039,-3.9044,-3.9445,-3.9452,-3.9459,0,0,0,0,0,0,-3.8766,-3.8788,-3.8956,-3.8873,-3.8892,-3.889,-3.8942,-3.8939,-3.8968,-3.8975,-3.8973,-3.8946,-3.8988,-3.9003,-3.9122,-3.9206,-3.9043,-3.905,-3.9438,-3.9447,-3.9455,-3.9586,0,0,0,0,0,0,-3.876,-3.8786,-3.8848,-3.8875,-3.8897,-3.9063,-3.8948,-3.8944,-3.8983,-3.8971,-3.9004,-3.9004,-3.8985,-3.911,-3.9131,-3.9214,-3.9057,-3.943,-3.9442,-3.9453,-3.9574,-3.9598,-3.9619,0,0,0,0,0,-3.8752,-3.8882,-3.8852,-3.8873,-3.8974,-3.9068,-3.9081,-3.9055,-3.899,-3.9052,-3.9056,-3.9003,-3.9194,-3.9123,-3.9145,-3.9233,-3.9425,-3.9439,-3.9452,-3.9564,-3.9594,-3.9619,0,0,0,0,0,0,-3.8865,-3.8885,-3.8851,-3.8994,-3.903,-3.9051,-3.9128,-3.9087,-3.9142,-3.9129,-3.9095,-3.9103,-3.923,-3.9244,-3.9165,-3.939,-3.9299,-3.9317,-3.9377,-3.9405,-3.9427,-3.942,-3.9064,0,0,0,0,0,-3.8907,-3.8982,-3.8995,-3.912,-3.9139,-3.9131,-3.9171,-3.9148,-3.9184,-3.9199,-3.9211,-3.9248,-3.9316,-3.9361,-3.9424,-3.9576,-3.9581,-3.9647,-3.967,-3.9688,-3.9704,-3.9784,-3.9813,-3.9503,-3.9502,-3.9502,0,0,-3.8993,-3.9013,-3.9063,-3.9143,-3.9168,-3.9246,-3.9144,-3.9231,-3.9288,-3.9212,-3.9325,-3.9336,-3.9374,-3.9511,-3.9571,-3.9525,-3.9791,-3.9705,-3.972,-3.9725,-3.9801,-3.983,-3.9856,-3.9512,-3.951,-3.9508,0,0,-3.9191,-3.9214,-3.932,-3.9347,-3.9386,-3.938,-3.9406,-3.9433,-3.9437,-3.955,-3.9494,-3.9561,-3.9679,-3.9708,-3.9739,-3.9947,-3.9901,-3.9969,-4.0085,-4.0164,-4.0188,-4.021,-4.0283,-4.0309,-3.9985,-3.9985,-3.9986,0,-3.9293,-3.9409,-3.9379,-3.947,-3.9506,-3.9441,-3.9547,-3.9575,-3.9633,-3.966,-3.9608,-3.9754,-3.9775,-3.9916,-3.9967,-3.9995,-4.0022,-3.9964,-4.0187,-4.0208,-4.0228,-4.0297,-4.0325,-3.9993,-3.9992,-3.9992,-3.9991,0,-3.9532,-3.9613,-3.9694,-3.9751,-3.9797,-3.9895,-3.988,-3.993,-3.9903,-3.9902,-4.0018,-4.0041,-4.0107,-4.0139,-4.0114,-4.0277,-4.0247,-4.0193,-4.0099,-4.0266,-4.033,-4.0357,-4.0005,-4.0002,-3.9999,-3.9997,0,0,-3.9803,-3.9842,-3.9872,-3.9897,-3.9936,-3.9997,-4.0092,-4.0157,-4.0199,-4.0242,-4.032,-4.0421,-4.037,-4.0405,-4.0382,-4.0452,-4.0614,-4.0388,-4.0388,-4.0428,-4.0793,-4.0833,-4.0864,-4.0583,-4.0588,-4.0592,-4.0789,0,-3.9999,-4.0163,-4.014,-4.0298,-4.0371,-4.031,-4.0392,-4.0425,-4.0427,-4.0489,-4.049,-4.0562,-4.049,-4.051,-4.0576,-4.058,-4.0686,-4.0566,-4.0655,-4.0658,-4.0645,-4.0898,-4.0941,-4.1126,-4.0814,-4.0819,-4.0822,0,-4.025,-4.0301,-4.0467,-4.0492,-4.0522,-4.0597,-4.0654,-4.0715,-4.075,-4.0746,-4.0785,-4.075,-4.0844,-4.0751,-4.088,-4.0798,-4.0833,-4.0841,-4.0847,-4.0854,-4.0749,-4.091,-4.1184,-4.1212,-4.0861,-4.0858,-4.0855,0,-4.0429,-4.0539,-4.0652,-4.0675,-4.0709,-4.0763,-4.0779,-4.0809,-4.0849,-4.0899,-4.0924,-4.0984,-4.1017,-4.1064,-4.1046,-4.098,-4.1179,-4.1084,-4.1177,-4.1178,-4.122,-4.1218,-4.1503,-4.1246,-4.1246,-4.1245,-4.1245,0,-4.065,-4.0753,-4.0732,-4.0802,-4.0915,-4.0887,-4.1,-4.1009,-4.1036,-4.1106,-4.1057,-4.1123,-4.1096,-4.1161,-4.1148,-4.1256,-4.1271,-4.127,-4.1265,-4.1274,-4.1274,-4.1295,-4.1281,-4.1252,-4.1251,-4.1249,-4.1248,0,-4.0868,-4.0859,-4.0977,-4.0999,-4.1007,-4.109,-4.1108,-4.1173,-4.1171,-4.126,-4.1279,-4.1275,-4.1349,-4.1336,-4.1417,-4.1408,-4.1543,-4.1523,-4.1531,-4.1526,-4.1619,-4.161,-4.1927,-4.1967,-4.1686,-4.1688,-4.169,0,-4.1009,-4.1087,-4.1117,-4.116,-4.1181,-4.1251,-4.1291,-4.1266,-4.131,-4.1356,-4.1415,-4.1484,-4.1538,-4.1658,-4.1662,-4.1724,-4.1704,-4.1811,-4.1713,-4.1719,-4.1704,-4.1699,-4.1706,-4.183,-4.1833,-4.1836,-4.1838,0,-4.126,-4.1251,-4.1311,-4.137,-4.1419,-4.1464,-4.1505,-4.1543,-4.1521,-4.1573,-4.1647,-4.1689,-4.1772,-4.184,-4.1898,-4.1914,-4.1873,-4.1869,-4.1893,-4.1902,-4.1903,-4.1902,-4.1582,-4.1861,-4.1859,-4.1857,-4.1856,-4.1855,-4.1442,-4.1508,-4.154,-4.1608,-4.1636,-4.1674,-4.1736,-4.1741,-4.1803,-4.1868,-4.1849,-4.1934,-4.1966,-4.2039,-4.2062,-4.2127,-4.2087,-4.2123,-4.2132,-4.2141,-4.2151,-4.1894,-4.2137,-4.2137,-4.2136,-4.2136,-4.2135,0,-4.1689,-4.1706,-4.1769,-4.1827,-4.1881,-4.1837,-4.1879,-4.1927,-4.2001,-4.2035,-4.2089,-4.2174,-4.224,-4.225,-4.2313,-4.2363,-4.2345,-4.238,-4.2375,-4.238,-4.2184,-4.2156,-4.2393,-4.2393,-4.2393,-4.2393,-4.2393,-4.2393,-4.1823,-4.1932,-4.1927,-4.2049,-4.2065,-4.2147,-4.2174,-4.2209,-4.2236,-4.2333,-4.2388,-4.2394,-4.2418,-4.2482,-4.2541,-4.2542,-4.2566,-4.2609,-4.2602,-4.2419,-4.2393,-4.2369,-4.2342,-4.2615,-4.2615,-4.2792,-4.2794,-4.2795]},{"header":{"parameterUnit":"m.s-1","parameterCategory":1,"la1":30.2991,"la2":30.254,"lo1":-89.0895,"lo2":-89.0444,"dy":0.0017,"dx":0.0017,"nx":28,"ny":28,"refTime":"2025-06-03T03:00:00:Z","depth":0,"parameterNumber":3,"parameterNumberName":"V-component_of_WINDS"},"data":[0,0,0,0,0,0,0,0,0,0,0,0,0,0,0,0,0,0,0,0,0,0,0,0,0,0,0,0,0,0,0,0,0,0,0,0,0,0,0,0,0,0,0,0,0,0,0,0,0,0,0,0,0,0,0,0,0,0,0.4757,0.4757,0,0.4697,0.4696,0.4696,0.4626,0.4624,0.4623,0.4622,0.4559,0.4558,0.4558,0,0,0,0,0,0,0,0,0,0,0,0,0,0.4811,0.481,0.4757,0.4756,0.4756,0.4697,0.4696,0.4695,0.4626,0.4624,0.4623,0.4622,0.4559,0.4558,0.4558,0,0,0,0,0,0,0,0,0,0,0,0,0,0.4773,0.481,0.4757,0.4714,0.4709,0.4697,0.4696,0.4695,0.4626,0.4624,0.4623,0.4621,0.456,0.4559,0.4558,0.4583,0,0,0.4554,0.4554,0,0,0,0,0,0,0,0,0.4775,0.4771,0.4721,0.4717,0.4712,0.4667,0.4692,0.4657,0.4626,0.4658,0.4622,0.4621,0.4596,0.4592,0.4584,0.458,0.4577,0.4554,0.4554,0.4553,0.4553,0,0,0,0,0,0,0,0.4778,0.4773,0.4733,0.472,0.4715,0.4697,0.469,0.4685,0.4636,0.4655,0.465,0.4643,0.4593,0.4585,0.4582,0.4576,0.4554,0.4553,0.4553,0.4552,0.459,0.4592,0,0,0,0,0,0,0.4787,0.4776,0.4735,0.4731,0.474,0.4697,0.4689,0.4683,0.4636,0.4628,0.4645,0.464,0.4588,0.4583,0.458,0.4606,0.4553,0.4552,0.4552,0.4588,0.459,0.4592,0,0,0,0,0,0,0.4789,0.4784,0.4738,0.4752,0.4745,0.4698,0.4692,0.4683,0.4675,0.4629,0.462,0.4646,0.4587,0.4581,0.4583,0.4603,0.4552,0.4551,0.4586,0.4589,0.4591,0.466,0,0,0,0,0,0,0.479,0.4785,0.4794,0.4753,0.4744,0.4742,0.4693,0.4683,0.4673,0.4667,0.4627,0.4619,0.4585,0.4585,0.4582,0.4601,0.455,0.4584,0.4588,0.459,0.4655,0.4664,0.4672,0,0,0,0,0,0.4793,0.4815,0.4795,0.4791,0.4755,0.4743,0.4739,0.4699,0.4675,0.4684,0.4655,0.462,0.4602,0.4585,0.4581,0.46,0.4583,0.4587,0.459,0.4652,0.4663,0.4672,0,0,0,0,0,0,0.4859,0.4809,0.4786,0.4796,0.4775,0.4732,0.4741,0.4712,0.4696,0.4691,0.4642,0.4634,0.4641,0.4621,0.4604,0.4623,0.4587,0.459,0.4635,0.4645,0.4653,0.4658,0.4549,0,0,0,0,0,0.4876,0.4871,0.4827,0.484,0.4831,0.4789,0.4782,0.4754,0.4729,0.4719,0.469,0.4667,0.4656,0.465,0.4637,0.4653,0.4643,0.4664,0.4672,0.4679,0.4682,0.4689,0.4698,0.4604,0.4604,0.4604,0,0,0.4909,0.4881,0.488,0.4853,0.4833,0.4829,0.4781,0.4778,0.4775,0.4719,0.4718,0.4697,0.4668,0.4677,0.4679,0.466,0.4706,0.4684,0.469,0.4688,0.4694,0.4703,0.4711,0.4607,0.4606,0.4606,0,0,0.4966,0.4945,0.4954,0.4935,0.4906,0.4877,0.488,0.4842,0.4825,0.4824,0.4782,0.4777,0.4759,0.4741,0.4729,0.4782,0.4749,0.4779,0.4821,0.4828,0.4836,0.4842,0.4861,0.4868,0.4782,0.4782,0.4782,0,0.5011,0.5003,0.4962,0.4962,0.4952,0.4902,0.491,0.4894,0.4862,0.4856,0.4835,0.4812,0.4789,0.4793,0.4807,0.4799,0.48,0.4782,0.4838,0.4844,0.4849,0.4866,0.4874,0.4786,0.4785,0.4785,0.4785,0,0.5059,0.5055,0.5065,0.5037,0.5027,0.5032,0.4991,0.4987,0.496,0.4934,0.4934,0.4905,0.4886,0.4885,0.4858,0.4886,0.4875,0.4847,0.481,0.4863,0.4878,0.4884,0.4791,0.479,0.4789,0.4788,0,0,0.5155,0.5105,0.511,0.5096,0.5061,0.5057,0.506,0.5041,0.5039,0.5019,0.5019,0.5006,0.498,0.4967,0.4938,0.4945,0.4989,0.4916,0.4915,0.493,0.5017,0.5038,0.5046,0.4968,0.4969,0.497,0.5019,0,0.5206,0.5208,0.5172,0.5184,0.5179,0.5133,0.5135,0.5114,0.509,0.5082,0.5056,0.5047,0.5014,0.5006,0.5011,0.4982,0.5005,0.4978,0.4967,0.4967,0.4975,0.5054,0.5075,0.5124,0.5025,0.5026,0.5027,0,0.5265,0.525,0.5262,0.5227,0.5223,0.5226,0.5207,0.5201,0.5176,0.5158,0.5145,0.5112,0.5112,0.5078,0.5077,0.506,0.5053,0.5039,0.504,0.5037,0.5,0.5052,0.5138,0.5145,0.5036,0.5035,0.5034,0,0.5334,0.5316,0.5321,0.5311,0.5271,0.5274,0.5257,0.5231,0.5222,0.5206,0.52,0.5184,0.5175,0.5163,0.5127,0.5106,0.513,0.5093,0.5115,0.5116,0.5121,0.5121,0.5207,0.5119,0.5119,0.5119,0.5119,0,0.5394,0.5403,0.5352,0.5354,0.5363,0.5322,0.5331,0.531,0.5287,0.5285,0.5244,0.5243,0.5195,0.5189,0.5161,0.5164,0.516,0.5146,0.5138,0.5149,0.5151,0.5143,0.5139,0.5121,0.512,0.512,0.5119,0,0.5472,0.5438,0.544,0.5402,0.5393,0.5401,0.5369,0.537,0.5344,0.5342,0.5339,0.5299,0.5289,0.5252,0.5233,0.5214,0.5227,0.5212,0.5235,0.523,0.5254,0.5252,0.5337,0.5346,0.5253,0.5254,0.5255,0,0.5512,0.5518,0.5482,0.5478,0.5463,0.5457,0.5449,0.5409,0.5402,0.5375,0.5379,0.5366,0.5354,0.534,0.5309,0.5295,0.5279,0.531,0.5276,0.5288,0.5279,0.5279,0.5279,0.5317,0.5318,0.5319,0.532,0,0.5587,0.557,0.556,0.5545,0.5537,0.5523,0.5506,0.5505,0.546,0.5455,0.5445,0.5435,0.5417,0.5405,0.5385,0.5368,0.5336,0.5331,0.5335,0.5346,0.5359,0.5352,0.5254,0.5329,0.5328,0.5327,0.5327,0.5326,0.5647,0.565,0.5625,0.5616,0.5599,0.5585,0.5584,0.5559,0.5551,0.5533,0.551,0.5503,0.5478,0.545,0.5435,0.5428,0.5411,0.5417,0.5418,0.542,0.5426,0.5361,0.5425,0.5424,0.5424,0.5424,0.5424,0,0.5719,0.5701,0.5693,0.5672,0.5665,0.5637,0.5618,0.5613,0.5608,0.5588,0.5577,0.5566,0.5555,0.5523,0.5508,0.551,0.5495,0.5507,0.5506,0.5503,0.5442,0.544,0.5519,0.5519,0.5519,0.5519,0.5519,0.5519,0.5756,0.576,0.5741,0.5736,0.5718,0.5712,0.5703,0.569,0.5674,0.5663,0.5654,0.5634,0.561,0.5593,0.5581,0.5572,0.5569,0.5585,0.5572,0.5516,0.5507,0.5498,0.5496,0.5585,0.5585,0.5632,0.5633,0.5633]}]]